DW6064 Weather Reports


time (UTC)temp
F
wind
direction
speed
knots
gust
knots
rain 1hr
in
rain 24hr
in
rain mn
in
humidity
%
barometer
mb
20260505030024 66 188 7.8 9.6 0.00 0.00 0.00 54 1009.1
20260505025543 66 178 6.1 10.4 0.00 0.00 0.00 55 1009.0
20260505025035 66 183 6.1 7.8 0.00 0.00 0.00 54 1008.8
20260505024526 66 167 6.1 8.7 0.00 0.00 0.00 54 1008.8
20260505024105 66 162 6.1 8.7 0.00 0.00 0.00 54 1008.7
20260505023601 66 170 6.1 8.7 0.00 0.00 0.00 53 1008.8
20260505023037 66 175 5.2 8.7 0.00 0.00 0.00 54 1008.8
20260505022530 66 188 6.1 8.7 0.00 0.00 0.00 53 1008.7
20260505022027 67 158 6.1 10.4 0.00 0.00 0.00 53 1008.6
20260505021535 67 165 7.8 10.4 0.00 0.00 0.00 53 1008.5
20260505021028 67 174 7.0 9.6 0.00 0.00 0.00 53 1008.6
20260505020524 67 153 7.0 9.6 0.00 0.00 0.00 52 1008.5
20260505020042 67 161 7.0 13.9 0.00 0.00 0.00 52 1008.4
20260505015601 67 166 8.7 13.9 0.00 0.00 0.00 52 1008.5
20260505015034 68 168 7.0 9.6 0.00 0.00 0.00 52 1008.5
20260505014524 68 182 7.0 9.6 0.00 0.00 0.00 52 1008.7
20260505014044 68 186 5.2 8.7 0.00 0.00 0.00 52 1008.8
20260505013541 68 187 6.1 12.2 0.00 0.00 0.00 51 1008.6
20260505013041 68 196 7.8 12.2 0.00 0.00 0.00 51 1008.6
20260505012532 68 182 8.7 13.0 0.00 0.00 0.00 51 1008.5
20260505012029 68 192 10.4 14.8 0.00 0.00 0.00 50 1008.5
20260505011543 68 205 13.0 16.5 0.00 0.00 0.00 49 1008.4
20260505011100 68 196 12.2 16.5 0.00 0.00 0.00 47 1008.4
20260505010555 68 175 8.7 11.3 0.00 0.00 0.00 46 1008.2
20260505010027 69 171 7.8 13.0 0.00 0.00 0.00 46 1007.9
20260505005543 69 150 8.7 13.0 0.00 0.00 0.00 46 1007.9
20260505005043 69 169 7.8 12.2 0.00 0.00 0.00 45 1007.9
20260505004601 69 148 7.0 12.2 0.00 0.00 0.00 45 1007.9
20260505004059 69 161 7.0 10.4 0.00 0.00 0.00 45 1007.8
20260505003532 69 140 7.8 12.2 0.00 0.00 0.00 45 1007.9
20260505003026 70 167 8.7 12.2 0.00 0.00 0.00 44 1007.8
20260505002538 70 175 7.0 14.8 0.00 0.00 0.00 44 1007.7
20260505002032 70 160 7.8 14.8 0.00 0.00 0.00 44 1007.6
20260505001525 70 171 8.7 13.0 0.00 0.00 0.00 43 1007.5
20260505001026 70 168 9.6 13.0 0.00 0.00 0.00 43 1007.6
20260505000541 70 163 10.4 12.2 0.00 0.00 0.00 43 1007.6
20260505000042 70 161 7.8 12.2 0.00 0.00 0.00 43 1007.6
20260504235529 71 167 8.7 12.2 0.00 0.00 0.00 43 1007.5
20260504235048 71 175 7.8 11.3 0.00 0.00 0.00 43 1007.5
20260504234544 71 155 7.0 12.2 0.00 0.00 0.00 43 1007.5
20260504234038 71 159 7.8 12.2 0.00 0.00 0.00 41 1007.5
20260504233533 72 144 7.0 10.4 0.00 0.00 0.00 42 1007.5
20260504233024 72 154 7.0 12.2 0.00 0.00 0.00 41 1007.4
20260504232542 72 163 8.7 12.2 0.00 0.00 0.00 41 1007.4
20260504232038 72 168 7.8 13.9 0.00 0.00 0.00 41 1007.4
20260504231530 73 148 9.6 12.2 0.00 0.00 0.00 41 1007.4
20260504231047 73 162 7.0 12.2 0.00 0.00 0.00 41 1007.4
20260504230543 73 156 7.8 10.4 0.00 0.00 0.00 40 1007.4
20260504230042 73 161 8.7 11.3 0.00 0.00 0.00 39 1007.4
20260504225536 73 186 8.7 14.8 0.00 0.00 0.00 39 1007.4
20260504225034 74 167 10.4 15.6 0.00 0.00 0.00 39 1007.4
20260504224524 74 167 11.3 15.6 0.00 0.00 0.00 38 1007.5
20260504224044 74 194 7.0 14.8 0.00 0.00 0.00 38 1007.5
20260504223537 74 181 7.8 14.8 0.00 0.00 0.00 37 1007.4
20260504223031 75 184 10.4 13.9 0.00 0.00 0.00 36 1007.4
20260504222527 75 180 10.4 13.9 0.00 0.00 0.00 37 1007.5
20260504222038 75 188 8.7 12.2 0.00 0.00 0.00 36 1007.4
20260504221539 75 180 9.6 13.9 0.00 0.00 0.00 36 1007.4
20260504221057 75 189 8.7 14.8 0.00 0.00 0.00 37 1007.5
20260504220553 75 161 7.8 13.9 0.00 0.00 0.00 37 1007.5
20260504220027 75 169 9.6 13.9 0.00 0.00 0.00 37 1007.5
20260504215541 75 180 7.0 13.9 0.00 0.00 0.00 37 1007.5
20260504215035 75 184 8.7 15.6 0.00 0.00 0.00 36 1007.6
20260504214524 75 166 12.2 17.4 0.00 0.00 0.00 36 1007.6
20260504214042 75 181 13.0 20.0 0.00 0.00 0.00 36 1007.5
20260504213600 76 180 12.2 20.0 0.00 0.00 0.00 35 1007.6
20260504213033 76 188 11.3 18.2 0.00 0.00 0.00 35 1007.5
20260504212550 77 175 14.8 18.2 0.00 0.00 0.00 34 1007.5
20260504212024 77 157 8.7 17.4 0.00 0.00 0.00 35 1007.5
20260504211603 77 196 13.9 17.4 0.00 0.00 0.00 34 1007.5
20260504211043 77 199 10.4 14.8 0.00 0.00 0.00 34 1007.5
20260504210543 77 186 10.4 13.9 0.00 0.00 0.00 34 1007.5
20260504210036 77 178 9.6 15.6 0.00 0.00 0.00 34 1007.4
20260504205528 77 182 11.3 15.6 0.00 0.00 0.00 34 1007.5
20260504205025 77 157 12.2 15.6 0.00 0.00 0.00 34 1007.6
20260504204559 77 188 10.4 20.9 0.00 0.00 0.00 34 1007.7
20260504204059 77 164 11.3 20.9 0.00 0.00 0.00 34 1007.8
20260504203530 77 149 10.4 20.0 0.00 0.00 0.00 34 1007.9
20260504203106 77 141 11.3 20.0 0.00 0.00 0.00 34 1007.9
20260504202538 77 180 9.6 15.6 0.00 0.00 0.00 35 1007.9
20260504202034 77 163 10.4 19.1 0.00 0.00 0.00 34 1007.9
20260504201526 76 148 14.8 20.0 0.00 0.00 0.00 34 1008.0
20260504201043 76 181 13.0 20.0 0.00 0.00 0.00 34 1008.1
20260504200533 77 160 12.2 17.4 0.00 0.00 0.00 33 1008.1
20260504200030 77 177 11.3 18.2 0.00 0.00 0.00 34 1008.3
20260504195529 77 165 11.3 15.6 0.00 0.00 0.00 33 1008.2
20260504195027 77 190 12.2 16.5 0.00 0.00 0.00 34 1008.4
20260504194604 77 171 12.2 18.2 0.00 0.00 0.00 34 1008.4
20260504194042 77 161 12.2 17.4 0.00 0.00 0.00 34 1008.5
20260504193543 77 160 8.7 17.4 0.00 0.00 0.00 35 1008.6
20260504193041 76 171 13.0 20.0 0.00 0.00 0.00 35 1008.7
20260504192541 77 183 11.3 20.0 0.00 0.00 0.00 34 1008.7
20260504192041 77 224 9.6 18.2 0.00 0.00 0.00 34 1009.0
20260504191542 77 168 13.0 18.2 0.00 0.00 0.00 33 1008.9
20260504191104 76 173 12.2 17.4 0.00 0.00 0.00 34 1009.0
20260504190537 76 182 9.6 14.8 0.00 0.00 0.00 35 1009.0
20260504190035 76 119 12.2 16.5 0.00 0.00 0.00 35 1009.2
20260504185527 76 163 13.0 19.1 0.00 0.00 0.00 34 1009.2
20260504185025 76 159 12.2 20.9 0.00 0.00 0.00 34 1009.4
20260504184542 76 144 8.7 13.9 0.00 0.00 0.00 36 1009.4
20260504184044 76 179 7.8 16.5 0.00 0.00 0.00 35 1009.4
20260504183537 75 219 4.3 16.5 0.00 0.00 0.00 37 1009.6
20260504183059 75 194 12.2 18.2 0.00 0.00 0.00 35 1009.7
20260504182541 75 188 10.4 18.2 0.00 0.00 0.00 35 1009.8
20260504182041 75 142 9.6 18.2 0.00 0.00 0.00 36 1009.9
20260504181539 74 142 9.6 17.4 0.00 0.00 0.00 34 1009.9
20260504181040 75 180 12.2 17.4 0.00 0.00 0.00 36 1010.1
20260504180536 75 202 8.7 14.8 0.00 0.00 0.00 36 1010.1
20260504180038 74 139 11.3 16.5 0.00 0.00 0.00 35 1010.1
20260504175533 74 160 13.0 16.5 0.00 0.00 0.00 36 1010.2
20260504175026 75 222 7.8 16.5 0.00 0.00 0.00 34 1010.3
20260504174604 74 205 6.1 12.2 0.00 0.00 0.00 35 1010.3
20260504174036 74 215 7.0 11.3 0.00 0.00 0.00 37 1010.4
20260504173531 73 174 7.0 14.8 0.00 0.00 0.00 36 1010.4
20260504173025 73 234 8.7 14.8 0.00 0.00 0.00 38 1010.6
20260504172604 73 194 8.7 14.8 0.00 0.00 0.00 36 1010.7
20260504172043 73 190 10.4 14.8 0.00 0.00 0.00 36 1010.8
20260504171541 73 178 8.7 14.8 0.00 0.00 0.00 37 1010.7
20260504171037 72 260 5.2 11.3 0.00 0.00 0.00 38 1010.8
20260504170531 72 211 7.8 11.3 0.00 0.00 0.00 38 1010.9
20260504151044 66 244 10.4 20.0 0.00 0.00 0.00 40 1012.2
20260504150539 66 229 3.5 8.7 0.00 0.00 0.00 45 1012.3
20260504141039 63 269 8.7 15.6 0.00 0.00 0.00 41 1012.5
20260504140539 63 179 7.8 11.3 0.00 0.00 0.00 43 1012.4
20260504130541 58 157 8.7 12.2 0.00 0.00 0.00 45 1012.7
20260504110540 48 146 3.5 6.1 0.00 0.00 0.00 59 1013.1
20260504100534 46 136 3.5 4.3 0.00 0.00 0.00 64 1013.1
20260504081536 44 149 1.7 2.6 0.00 0.00 0.00 64 1013.6
20260504081041 44 149 1.7 4.3 0.00 0.00 0.00 63 1013.7
20260504080541 44 149 1.7 4.3 0.00 0.00 0.00 64 1013.7
20260504050537 43 146 1.7 3.5 0.00 0.00 0.00 70 1014.1
20260504045536 44 146 2.6 3.5 0.00 0.00 0.00 69 1014.1
20260504045039 44 138 1.7 3.5 0.00 0.00 0.00 68 1014.0
20260504044539 44 138 1.7 3.5 0.00 0.00 0.00 68 1014.1
20260504044037 44 138 1.7 2.6 0.00 0.00 0.00 67 1014.2
20260504043559 44 138 1.7 2.6 0.00 0.00 0.00 66 1014.2
20260504043039 44 138 1.7 3.5 0.00 0.00 0.00 67 1014.2
20260504042537 44 138 0.9 3.5 0.00 0.00 0.00 67 1014.3
20260504042034 44 138 1.7 4.3 0.00 0.00 0.00 67 1014.2
20260504041530 44 145 2.6 6.1 0.00 0.00 0.00 66 1014.2
20260504041051 44 139 3.5 6.1 0.00 0.00 0.00 65 1014.3
20260504040524 44 144 3.5 4.3 0.00 0.00 0.00 66 1014.3
20260504040044 44 143 2.6 4.3 0.00 0.00 0.00 66 1014.3
20260504035539 44 146 3.5 4.3 0.00 0.00 0.00 67 1014.3
20260504035043 45 148 3.5 4.3 0.00 0.00 0.00 68 1014.3
20260504034543 45 144 2.6 4.3 0.00 0.00 0.00 67 1014.4
20260504034157 45 138 2.6 4.3 0.00 0.00 0.00 67 1014.3
20260504033542 46 149 2.6 4.3 0.00 0.00 0.00 66 1014.4
20260504033043 46 149 1.7 2.6 0.00 0.00 0.00 65 1014.2
20260504032542 46 149 1.7 2.6 0.00 0.00 0.00 65 1014.2
20260504032044 46 149 1.7 2.6 0.00 0.00 0.00 64 1014.3
20260504031539 47 149 0.0 0.0 0.00 0.00 0.00 63 1014.3
20260504031041 47 149 0.0 0.0 0.00 0.00 0.00 62 1014.3
20260504030537 47 149 0.0 0.0 0.00 0.00 0.00 61 1014.2